Погода в Волчеяровке

Украина / Луганская область     48°49′48″N   38°23′00″E
В апреле 2022 года жителям России запретили посещать сайт meteo.paraplan.net по решению Генеральной прокуратуры. Аудитория сайта уменьшилась в 10 раз. Владельцы сайта не видят смысла в поддержке погодного сервера в таких условиях. Сайт будет закрыт в октябре.
темп.,
°C
ветер,
м/с
пор.,
м/с
влажн.,
%
обл.,
%
осадки,
мм/ч
давл.,
гПа
погр.,
м
4 октября, вт
вт400:00+11ю386669 0.0 1012156
03:00+11ююв397598 0.0 1012202
06:00+12ююз51283100 0.2 1013467
09:00+13ю61184100 1.1 1014559
12:00+15ююз697051 0.1 1014750
15:00+16ююз686474 0.6 10141025
18:00+15ююз3766100 0.6 1015209
21:00+12зюз117015 0.6 101713
5 октября, ср
ср500:00+9з37743 0.0 1019169
03:00+8зюз23790 0.0 102058
06:00+7юз35790 0.0 1021104
09:00+11зюз58621 0.0 1021482
12:00+15з67507 0.0 10221379
15:00+15з4850100 0.0 10221651
18:00+12зюз355686 0.0 102397
21:00+13зсз3756100 0.0 1024385
6 октября, чт
чт600:00+11сз2364100 0.0 1025202
03:00+9з237447 0.0 102547
06:00+8зюз238098 0.0 102667
09:00+12зюз356977 0.0 1026396
12:00+16з445133 0.0 10251117
15:00+17зсз464774 0.0 10241744
18:00+14зсз22595 0.0 102516
21:00+13юз22635 0.0 102516
7 октября, пт
пт700:00+12зюз22665 0.0 102528
03:00+11зюз22715 0.0 102527
06:00+10зюз22745 0.0 102527
09:00+14зюз34586 0.0 1025267
12:00+18зсз344432 0.0 1025871
15:00+19сз33425 0.0 10241226
18:00+16с225633 0.0 102411
21:00+14ссв226610 0.0 102521
8 октября, сб
сб800:00+12св347894 0.0 102674
03:00+11всв2485100 0.0 102581
06:00+11всв2488100 0.0 102579
09:00+14в477198 0.0 1025365
12:00+18в5651100 0.0 1024882
15:00+19в5646100 0.0 10221173
18:00+16всв3457100 0.0 102262
21:00+13в3464100 0.0 102260